Location: Cercedilla
(40.7379°N, 4.0638°W)
Time: 01:16:41
(UTC+00:00)

Daily predictions for brighter satellites

Satellite Brightness Start Highest point End
(mag) Time Altitude Azimuth Time Altitude Azimuth Time Altitude Azimuth
STARLINK-1240 4.4 00:00:19 10° NW 00:03:59 49° NNE 00:03:59 49° NNE
Cosmos 1763 Rocket 3.8 00:05:58 52° E 00:05:58 52° E 00:10:28 10° NNE
STARLINK-1216 4.4 00:05:18 10° NW 00:08:47 50° N 00:08:47 50° N
Cosmos 2227 Rocket 2.2 00:03:47 10° NNW 00:09:29 72° ENE 00:10:10 64° ESE
STARLINK-1237 4.4 00:10:16 10° NW 00:13:34 49° NNW 00:13:34 49° NNW
Cosmos 1356 Rocket 4.0 00:10:26 10° N 00:13:55 59° N 00:13:55 59° N
Nadezhda 1 Rocket 3.9 00:18:05 10° N 00:24:22 79° E 00:25:28 62° SSE
CZ-4 R/B 4.1 00:20:38 10° NNE 00:24:50 55° ENE 00:24:50 55° ENE
Cosmos 1300 4.2 00:21:47 10° NNW 00:24:09 31° NW 00:24:09 31° NW
Meteor 2-16 Rocket 4.5 00:27:14 57° SW 00:28:13 66° W 00:34:18 10° N
YAOGAN 11 4.5 00:32:04 58° NW 00:32:04 58° NW 00:35:38 10° NNW
Cosmos 1626 Rocket 4.0 00:34:39 55° NW 00:34:39 55° NW 00:38:23 10° N
CZ-2D R/B 4.3 00:31:44 10° ENE 00:34:03 13° E 00:35:02 12° ESE
Cosmos-2242 4.5 00:30:39 10° NNE 00:34:21 28° ENE 00:34:23 28° ENE
USA 215 3.8 00:28:20 10° ESE 00:34:44 57° NE 00:41:07 10° NW
Meteor 2-10 Rocket 3.8 00:29:54 10° N 00:34:55 54° ENE 00:35:16 53° E
Meteor 1-21 Rocket 4.2 00:34:27 66° SE 00:34:57 70° E 00:40:41 10° NNE
Cosmos 540 Rocket 3.7 00:41:07 56° E 00:41:07 56° E 00:46:01 10° NNE
SeaSat 1 4.4 00:41:22 10° N 00:45:10 23° NW 00:47:20 17° W
SL-08 ROCKET BODY 4.4 00:45:02 59° WSW 00:45:47 64° W 00:51:36 10° N
Helios 1B rocket 2.8 00:46:55 10° N 00:50:24 61° N 00:50:24 61° N
Cosmos 1980 Rocket 2.1 00:51:50 65° SE 00:52:12 67° ESE 00:57:49 10° NNE
STARLINK-1317 4.4 00:56:33 45° NNE 00:56:33 45° NNE 00:59:26 10° NE
Uosat 12 SS-18 rocket 4.3 00:53:42 10° NNW 00:58:00 66° NE 00:58:02 66° ENE
Cosmos 1455 3.1 00:57:23 10° N 01:00:05 45° N 01:00:05 45° N
Cosmos 1745 Rocket 4.4 01:01:26 42° WSW 01:02:36 46° WNW 01:08:30 10° N
Cosmos 2369 4.0 01:02:04 50° WSW 01:03:04 58° WNW 01:08:40 10° NNE
STARLINK-1291 4.5 01:04:15 42° NNE 01:04:15 42° NNE 01:06:59 10° NE
Cosmos 1812 Rocket 4.2 01:00:34 10° NNW 01:04:13 47° WNW 01:04:13 47° WNW
Cosmos 1703 3.9 01:05:53 55° NNE 01:05:53 55° NNE 01:09:03 10° N
STARLINK-1264 4.4 01:07:26 44° NNE 01:07:26 44° NNE 01:10:18 10° NE
Cosmos 1937 Rocket 3.4 01:01:49 10° NNW 01:07:05 70° WSW 01:07:10 70° WSW
Cosmos 1825 Rocket 3.6 01:08:39 74° NNE 01:08:39 74° NNE 01:12:38 10° N
Lacrosse 4 Rocket 2.5 01:04:31 10° NW 01:07:20 36° WNW 01:07:20 36° WNW
STARLINK-1267 4.4 01:10:40 44° N 01:10:40 44° N 01:13:39 10° NE
Cosmos 2263 Rocket 3.7 01:06:25 10° N 01:11:24 32° ENE 01:15:58 12° ESE
SL-4 R/B 4.2 01:08:57 10° NW 01:13:18 32° NNE 01:17:32 10° E
Cosmos 2297 Rocket 3.4 01:10:42 10° NW 01:14:46 27° W 01:14:46 27° W
Cosmos 1898 Rocket 4.2 01:10:53 10° NNW 01:15:28 40° W 01:15:28 40° W
STARLINK-1207 4.4 01:17:09 44° NNW 01:17:09 44° NNW 01:20:24 10° NE
CZ-4C R/B 3.6 01:16:43 21° W 01:19:13 30° NW 01:24:26 10° NNE
Cosmos 372 Rocket 4.1 01:14:27 10° NNW 01:19:36 67° ENE 01:20:47 50° SE
STARLINK-1266 4.4 01:20:25 43° NNW 01:20:25 43° NNW 01:23:47 10° NE
PSLV R/B 4.5 01:17:37 10° N 01:21:39 37° WNW 01:21:39 37° WNW
STARLINK-1299 4.4 01:24:06 45° E 01:24:06 45° E 01:27:22 10° ENE
STARLINK-1284 4.4 01:23:40 41° NNW 01:23:40 41° NNW 01:27:10 10° NE
BREEZE-M DEB (TANK) 4.4 01:24:20 10° NW 01:26:02 14° N 01:27:30 10° NNE
STARLINK-1258 4.5 01:26:59 38° NW 01:27:03 39° NNW 01:30:35 10° NE
Spot 1 4.3 01:27:44 67° SSE 01:28:25 85° ENE 01:33:32 10° NNW
Alouette 2 Rocket 4.0 01:24:31 10° NNW 01:28:04 47° NW 01:28:04 47° NW
STARLINK-1273 4.4 01:30:32 43° E 01:30:32 43° E 01:33:41 10° ENE
Cosmos 1814 Rocket 4.2 01:29:12 51° WSW 01:30:03 58° WNW 01:35:17 10° NNE
Cosmos 2082 4.2 01:24:50 10° NW 01:30:00 42° WSW 01:30:00 42° WSW
Cosmos 2322 Rocket 3.3 01:29:42 29° SE 01:31:04 32° ESE 01:36:00 10° NE
Cosmos 2150 Rocket 4.2 01:27:06 10° NNW 01:32:13 64° ENE 01:33:54 41° SE
STARLINK-1288 4.2 01:35:19 49° E 01:35:19 49° E 01:38:41 10° ENE
SJ 16-02 3.6 01:35:12 10° WNW 01:36:30 14° WNW 01:36:30 14° WNW
Cosmos 1697 Rocket 4.1 01:36:19 23° W 01:38:23 29° NW 01:43:18 10° N
Cosmos 2278 4.4 01:38:02 35° W 01:39:36 43° WNW 01:45:00 10° N
STARLINK-1308 3.9 01:40:08 58° E 01:40:08 58° E 01:43:44 10° NE
Cosmos 841 Rocket 4.3 01:38:49 36° W 01:39:52 39° WNW 01:44:45 10° N
SL-19 R/B 4.4 01:34:34 10° N 01:40:14 68° WNW 01:41:48 48° SW
DELTA 2 DEB (DPAF) 4.0 01:40:14 72° SSE 01:40:41 86° ENE 01:45:09 10° NNW
Cosmos 2181 Rocket 4.0 01:34:33 10° NNW 01:40:58 70° W 01:42:49 47° SSW
Resurs 1-4 Rocket 2.4 01:38:13 10° NNE 01:43:30 60° ESE 01:44:54 45° SSE
Cosmos 1400 Rocket 2.8 01:40:43 10° N 01:44:45 81° WNW 01:44:45 81° WNW
Cosmos 1125 Rocket 4.1 01:40:46 10° N 01:45:51 52° ENE 01:48:54 23° SE
Gblst 52 Del rocket 4.5 01:43:53 43° SW 01:46:08 88° NNW 01:53:12 10° NE
STARLINK-1304 3.5 01:49:41 76° ESE 01:49:41 76° ESE 01:53:41 10° NE
Cosmos 1375 Rocket 4.5 01:43:15 10° NW 01:49:48 67° WSW 01:52:10 40° S
Cosmos 2084 Rocket 4.2 01:48:02 10° NW 01:51:25 42° W 01:51:25 42° W
Cosmos 2154 Rocket 4.4 01:49:51 31° SSE 01:52:42 56° E 01:58:46 10° NNE
Cosmos 2227 Rocket 4.1 01:49:44 10° WNW 01:51:58 15° W 01:51:58 15° W
STARLINK-48 4.2 01:53:48 43° WNW 01:54:18 46° NNW 01:58:04 10° NE
STARLINK-1278 3.6 01:55:21 74° W 01:55:41 81° NW 01:59:58 10° NE
STARLINK-1280 3.6 01:57:08 70° W 01:57:32 79° NW 02:01:49 10° NE
SL-16 R/B 2.5 01:55:28 31° SSE 01:58:37 85° ENE 02:04:49 10° NNW
Cosmos 2298 Rocket 4.0 01:53:50 10° NNW 01:59:07 67° WSW 02:00:18 51° SSW
Meteor 1-27 4.1 01:53:35 10° N 01:59:11 89° E 02:01:19 40° S
Cosmos 2227 4.2 01:53:58 10° NNW 01:59:45 90° E 02:02:39 31° SSE
Cosmos 1241 Rocket 4.3 01:57:57 45° SSW 02:00:03 88° WNW 02:06:19 10° NNE
Iridium 2 4.1 01:58:54 10° N 02:02:37 56° E 02:03:11 49° ESE
NOSS 2-1 (E) 2.9 02:04:58 77° N 02:04:58 77° N 02:08:18 10° NNE
STARLINK-1286 3.6 02:05:37 63° W 02:06:11 75° NW 02:10:22 10° NE
SL-16 R/B 2.2 02:04:36 44° S 02:06:27 79° ESE 02:12:08 10° NNE
MOZ.5/SAFIR/RUBIN 5/SL-8 3.8 02:07:55 54° SW 02:08:33 59° W 02:13:09 10° NNW
STARLINK-1281 3.6 02:08:48 60° W 02:09:25 74° NW 02:13:35 10° NE
CRYOSAT 2 4.5 02:04:52 10° N 02:09:46 71° E 02:11:31 39° SSE
STARLINK-37 4.3 02:13:33 34° ESE 02:13:33 34° ESE 02:16:35 10° ENE
STARLINK-1310 3.8 02:13:35 51° W 02:14:25 67° NW 02:18:33 10° NE
CZ-2D R/B 2.0 02:09:25 10° N 02:14:39 73° WNW 02:16:21 43° SSW
STARLINK-36 4.3 02:14:56 33° ESE 02:14:56 33° ESE 02:17:58 10° ENE
CZ-4C R/B 3.6 02:14:17 54° SW 02:14:50 58° W 02:19:14 10° NNW
Cosmos 2221 2.5 02:10:28 10° N 02:14:51 78° E 02:16:17 42° SSE
STARLINK-60 3.9 02:12:25 10° NW 02:15:31 48° NE 02:18:37 10° ESE
USA 215 3.5 02:15:22 31° S 02:17:48 43° SW 02:24:00 10° WNW
STARLINK-63 4.1 02:18:10 38° SE 02:18:10 38° SE 02:21:24 10° ENE
STARLINK-35 4.1 02:19:32 36° SE 02:19:32 36° SE 02:22:42 10° ENE
STARLINK-1319 3.9 02:18:21 45° W 02:19:23 62° NW 02:23:30 10° NE
GP-B 3.7 02:15:44 10° NNW 02:19:52 39° W 02:20:25 37° W
Nadezhda 3 Rocket 4.1 02:14:01 10° N 02:20:22 81° E 02:24:39 22° S
Cosmos 1315 Rocket 2.7 02:16:34 10° N 02:20:31 88° E 02:21:25 53° S
STARLINK-51 4.0 02:21:14 39° SE 02:21:14 39° SE 02:24:34 10° ENE
Cosmos 1842 Rocket 3.5 02:17:40 10° NNW 02:22:07 70° W 02:23:12 49° SSW
STARLINK-30 3.9 02:22:49 40° SE 02:22:50 40° SE 02:26:16 10° ENE
STARLINK-72 3.9 02:24:13 41° SE 02:24:14 41° SE 02:27:36 10° ENE
CBERS-1 4.2 02:19:08 10° NNE 02:24:16 68° ESE 02:26:39 32° S
STARLINK-1277 4.0 02:23:08 39° W 02:24:23 57° NW 02:28:28 10° NE
Shenzhou-11 Module 3.1 02:26:47 33° NE 02:26:47 33° NE 02:28:27 10° ENE
STARLINK-59 3.6 02:27:25 47° SE 02:27:34 47° SE 02:31:01 10° ENE
Cosmos 2058 2.9 02:27:00 44° S 02:28:17 83° E 02:32:30 10° N
Cosmos 2360 Rocket 2.7 02:25:44 27° S 02:28:35 51° ESE 02:34:02 10° NNE
IRIDIUM 103 4.4 02:25:55 29° S 02:28:38 75° E 02:33:51 10° N
STARLINK-1010 4.4 02:28:17 35° SSE 02:29:03 38° SE 02:33:00 10° ENE
STARLINK-56 3.6 02:29:04 46° SSE 02:29:19 47° SE 02:32:49 10° ENE
STARLINK-1276 4.2 02:27:56 34° W 02:29:24 52° NW 02:33:28 10° NE
STARLINK-73 3.6 02:30:38 47° SSE 02:30:56 49° SE 02:34:28 10° ENE
STARLINK-1019 4.4 02:30:59 34° SSE 02:31:45 37° SE 02:35:35 10° ENE
STARLINK-38 3.5 02:32:12 49° SSE 02:32:34 51° SE 02:36:06 10° ENE
STARLINK-65 3.5 02:33:46 49° SSE 02:34:12 53° SE 02:37:44 10° ENE
STARLINK-1305 4.3 02:32:42 30° W 02:34:22 48° NNW 02:38:24 10° NE
STARLINK-68 3.4 02:34:23 52° S 02:34:53 59° SE 02:38:29 10° ENE
STARLINK-1306 4.4 02:33:14 28° W 02:35:03 46° NNW 02:39:07 10° NE
STARLINK-53 3.4 02:35:24 52° S 02:35:53 59° SE 02:39:28 10° ENE
Cosmos 1295 Rocket 4.5 02:32:33 28° S 02:36:07 85° W 02:42:26 10° N
Cosmos 1980 Rocket 4.0 02:33:35 13° W 02:36:43 20° NW 02:40:46 10° N
STARLINK-1012 4.3 02:35:47 35° SSE 02:36:43 41° SE 02:40:38 10° ENE
STARLINK-50 3.6 02:37:26 46° S 02:38:10 56° SE 02:41:54 10° ENE
STARLINK-1262 4.4 02:37:30 26° W 02:39:24 44° NNW 02:43:23 10° NE
FALCON 9 R/B 4.3 02:36:00 19° WSW 02:41:29 43° S 03:04:37 10° SE
CZ-4B R/B 3.8 02:36:55 10° N 02:42:05 57° WNW 02:44:30 30° SW
Cosmos 2333 Rocket 4.0 02:37:55 10° SSE 02:42:20 24° ESE 02:46:47 10° NE
STARLINK-71 3.6 02:41:45 43° SSW 02:42:53 66° SE 02:46:53 10° NE
Cosmos 2219 Rocket 4.0 02:42:05 10° SSE 02:46:27 24° ESE 02:50:50 10° NE
STARLINK-1026 4.0 02:45:20 35° S 02:46:37 50° SE 02:50:39 10° ENE
IRIDIUM 106 4.3 02:44:10 28° SSW 02:46:55 75° W 02:52:10 10° N
STARLINK-29 4.0 02:45:15 10° NW 02:48:21 46° NE 02:51:26 10° ESE
STARLINK-1013 3.9 02:50:08 35° SSW 02:51:36 56° SE 02:55:40 10° ENE
ADEOS II 2.0 02:47:06 10° NNE 02:52:23 86° WNW 02:55:36 24° SSW
SL-4 R/B 2.2 02:48:37 10° NW 02:53:25 77° SW 02:58:00 10° SE
STARLINK-25 3.0 02:53:37 43° SW 02:54:38 86° SE 02:58:06 10° NE
ERS-2 3.9 02:51:31 10° SE 02:54:48 33° ENE 02:58:08 10° N
IRS-1D 3.7 02:49:57 10° N 02:55:09 63° WNW 02:58:00 26° SW
Cosmos 2263 Rocket 2.8 02:50:16 10° NW 02:55:19 36° WSW 02:57:35 25° SSW
IDEFIX/ARIANE 42P 4.0 02:51:06 10° NNE 02:55:49 32° E 03:00:28 10° SSE
STARLINK-1009 3.8 02:54:54 33° SSW 02:56:33 62° SE 03:00:39 10° ENE
Cosmos 2341 Rocket 4.0 02:52:36 21° S 02:57:04 82° W 03:03:25 10° N
Cosmos 1892 3.2 02:56:52 33° WSW 02:57:58 42° W 03:01:36 10° N
STARLINK-1015 3.7 02:59:41 31° SSW 03:01:32 68° SE 03:05:39 10° NE
ARIANE 5 R/B 2.6 02:56:33 10° NNE 03:01:33 70° ESE 03:05:22 17° S
STARLINK-24 3.5 03:03:58 28° WSW 03:05:58 78° NW 03:09:59 10° NE
STARLINK-1016 3.6 03:04:27 29° SW 03:06:29 75° SE 03:10:38 10° NE
CZ-2D R/B 4.3 03:02:20 10° NNE 03:06:31 51° E 03:10:18 13° S
USA 229 DEB 4.1 03:00:32 10° NW 03:07:34 49° WSW 03:14:51 10° S
USA 229 4.1 03:00:38 10° NW 03:07:41 49° WSW 03:14:59 10° S
Cosmos 1869 4.4 03:04:37 10° NW 03:07:48 25° W 03:08:31 23° WSW
NOSS 3-1 (C) 4.4 03:01:05 10° NW 03:08:32 47° WSW 03:16:47 10° S
IRS-1C 4.1 03:03:12 10° N 03:08:33 76° WNW 03:12:23 19° SSW
STARLINK-1008 3.6 03:09:15 26° SW 03:11:29 83° SE 03:15:38 10° NE
STARLINK-81 3.4 03:12:44 25° WSW 03:14:40 67° NW 03:18:18 10° NE
Cosmos 2322 Rocket 3.1 03:11:31 18° WSW 03:15:00 35° WNW 03:20:09 10° N
STARLINK-54 3.6 03:14:25 23° WSW 03:16:26 58° NW 03:20:00 10° NE
STARLINK-1014 3.5 03:14:03 24° SW 03:16:27 90° ENE 03:20:35 10° NE
SL-8 Rocket 4.0 03:11:29 15° SSW 03:16:46 78° W 03:23:03 10° N
NOSS 3-1 (A) 4.2 03:09:08 10° NW 03:16:51 61° WSW 03:25:28 10° SSE
STARLINK-77 3.5 03:15:52 23° WSW 03:17:55 63° NW 03:21:32 10° NE
Cosmos 1151 Rocket 4.1 03:14:22 10° N 03:18:37 47° E 03:22:50 10° SSE
Cosmos 2151 3.0 03:17:06 20° SSW 03:20:01 68° W 03:24:20 10° N
Lacrosse 5 rocket 2.9 03:17:38 13° S 03:20:29 26° SE 03:23:46 10° ENE
Cosmos 2218 Rocket 4.1 03:15:15 12° S 03:21:12 86° W 03:27:38 10° N
STARLINK-1025 3.6 03:18:49 22° SW 03:21:27 83° NW 03:25:36 10° NE
H-2A R/B 2.6 03:17:37 10° SSE 03:21:59 62° ENE 03:26:26 10° N
Cosmos 1766 Rocket 3.5 03:19:02 14° S 03:22:45 84° E 03:27:06 10° N
Resurs 1-4 Rocket 3.9 03:19:17 10° NNW 03:22:49 18° WNW 03:25:59 11° W
STARLINK-79 3.6 03:20:34 20° WSW 03:22:50 56° NW 03:26:25 10° NE
COBE Rocket 3.9 03:17:58 10° S 03:23:01 75° W 03:28:12 10° NNW
STARLINK-52 2.9 03:20:29 10° NW 03:23:42 90° NE 03:26:54 10° SE
STARLINK-78 3.7 03:22:08 19° WSW 03:24:28 54° NW 03:28:03 10° NE
Cosmos 1408 3.6 03:23:50 21° SW 03:25:34 31° WNW 03:28:54 10° NNW
Okean 3 Rocket 3.6 03:22:07 15° SSW 03:25:49 76° W 03:30:22 10° N
STARLINK-57 3.8 03:23:43 18° WSW 03:26:07 50° NW 03:29:39 10° NE
STARLINK-1017 3.7 03:23:34 20° WSW 03:26:23 76° NW 03:30:32 10° NE
STARLINK-49 3.8 03:25:12 18° WSW 03:27:39 51° NW 03:31:11 10° NE
STARLINK-27 3.9 03:26:50 17° WSW 03:29:22 49° NW 03:32:55 10° NE
STARLINK-74 3.9 03:28:23 17° WSW 03:30:59 48° NW 03:34:31 10° NE
STARLINK-1023 3.7 03:28:21 18° WSW 03:31:21 70° NW 03:35:30 10° NE
Cosmos 1825 2.7 03:30:16 19° SW 03:32:36 41° WNW 03:36:11 10° N
STARLINK-39 4.0 03:29:58 16° WSW 03:32:38 46° NW 03:36:10 10° NE
Spot 4 Rocket 4.0 03:28:09 10° NNE 03:33:18 83° WNW 03:38:21 10° SSW
STARLINK-31 4.0 03:31:33 15° WSW 03:34:18 45° NNW 03:37:48 10° NE
STARLINK-1444 4.2 03:35:59 15° S 03:35:59 15° S 03:36:44 10° S
GEOS 3 Rocket 4.1 03:30:13 10° S 03:34:59 38° WSW 03:39:53 10° NW
STARLINK-1452 4.3 03:36:39 15° S 03:36:39 15° S 03:37:21 10° S
STARLINK-69 4.2 03:33:03 14° W 03:35:52 40° NNW 03:39:17 10° NE
STARLINK-1392 4.5 03:37:32 13° S 03:37:32 13° S 03:37:55 10° S
STARLINK-1399 4.4 03:37:33 13° S 03:37:33 13° S 03:38:01 10° S
STARLINK-1393 4.5 03:37:35 13° S 03:37:35 13° S 03:38:03 10° S
STARLINK-1394 4.4 03:37:37 13° S 03:37:37 13° S 03:38:04 10° S
STARLINK-1395 4.5 03:37:43 13° S 03:37:43 13° S 03:38:07 10° S
STARLINK-1397 4.4 03:37:39 13° S 03:37:39 13° S 03:38:08 10° S
STARLINK-1414 4.5 03:37:42 13° S 03:37:42 13° S 03:38:08 10° S
STARLINK-1396 4.4 03:37:40 13° S 03:37:40 13° S 03:38:09 10° S
STARLINK-1408 4.5 03:37:46 13° S 03:37:46 13° S 03:38:10 10° S
STARLINK-1404 4.4 03:37:45 13° S 03:37:45 13° S 03:38:15 10° S
STARLINK-1416 4.4 03:37:46 13° S 03:37:46 13° S 03:38:15 10° S
STARLINK-1406 4.5 03:37:52 13° S 03:37:52 13° S 03:38:16 10° S
STARLINK-1415 4.4 03:37:45 14° S 03:37:45 14° S 03:38:17 10° S
STARLINK-1007 3.9 03:33:11 16° WSW 03:36:23 64° NW 03:40:31 10° NE
STARLINK-1401 4.4 03:37:48 14° S 03:37:48 14° S 03:38:21 10° S
STARLINK-1450 4.4 03:37:47 14° S 03:37:47 14° S 03:38:21 10° S
STARLINK-1417 4.4 03:37:51 14° S 03:37:51 14° S 03:38:25 10° S
STARLINK-1402 4.4 03:37:53 14° S 03:37:53 14° S 03:38:26 10° S
STARLINK-1413 4.4 03:37:52 14° S 03:37:52 14° S 03:38:26 10° S
STARLINK-1419 4.4 03:37:54 14° S 03:37:54 14° S 03:38:26 10° S
STARLINK-1422 4.4 03:37:59 14° S 03:37:59 14° S 03:38:32 10° S
STARLINK-1453 4.3 03:37:58 14° S 03:37:58 14° S 03:38:35 10° S
STARLINK-1398 4.3 03:37:58 14° S 03:37:58 14° S 03:38:38 10° S
STARLINK-1420 4.3 03:38:02 14° S 03:38:02 14° S 03:38:38 10° S
STARLINK-1440 4.4 03:38:05 14° S 03:38:05 14° S 03:38:40 10° S
STARLINK-1460 4.3 03:38:04 14° S 03:38:04 14° S 03:38:40 10° S
STARLINK-1436 (VISORSAT) 4.2 03:38:02 15° S 03:38:02 15° S 03:38:45 10° S
STARLINK-1410 4.4 03:38:09 14° S 03:38:09 14° S 03:38:44 10° S
STARLINK-1423 4.4 03:38:11 14° S 03:38:11 14° S 03:38:44 10° S
STARLINK-1421 4.4 03:38:11 14° S 03:38:11 14° S 03:38:45 10° S
STARLINK-1400 4.3 03:38:09 14° S 03:38:09 14° S 03:38:45 10° S
STARLINK-1454 4.3 03:38:11 14° S 03:38:11 14° S 03:38:47 10° S
STARLINK-1458 4.3 03:38:14 14° S 03:38:14 14° S 03:38:50 10° S
STARLINK-1445 4.3 03:38:14 14° S 03:38:14 14° S 03:38:53 10° S
STARLINK-1407 4.3 03:38:17 14° S 03:38:17 14° S 03:38:54 10° S
STARLINK-1405 4.4 03:38:23 13° S 03:38:23 13° S 03:38:53 10° S
STARLINK-1446 4.3 03:38:17 14° S 03:38:17 14° S 03:38:56 10° S
STARLINK-1370 4.3 03:38:20 14° S 03:38:20 14° S 03:38:57 10° S
STARLINK-1439 4.4 03:38:27 13° S 03:38:27 13° S 03:38:57 10° S
STARLINK-1409 4.3 03:38:23 14° S 03:38:23 14° S 03:38:59 10° S
STARLINK-1456 4.3 03:38:22 14° S 03:38:22 14° S 03:38:59 10° S
STARLINK-1451 4.3 03:38:23 14° S 03:38:23 14° S 03:39:00 10° S
STARLINK-1457 4.3 03:38:22 14° S 03:38:22 14° S 03:39:00 10° S
STARLINK-1447 4.3 03:38:22 14° S 03:38:22 14° S 03:39:01 10° S
STARLINK-1455 4.3 03:38:24 14° S 03:38:24 14° S 03:39:01 10° S
STARLINK-1437 4.3 03:38:25 14° S 03:38:25 14° S 03:39:03 10° S
STARLINK-1441 4.3 03:38:24 14° S 03:38:24 14° S 03:39:04 10° S
STARLINK-1443 4.3 03:38:26 15° S 03:38:26 15° S 03:39:08 10° S
STARLINK-1418 4.3 03:38:29 14° S 03:38:29 14° S 03:39:08 10° S
STARLINK-1351 4.3 03:38:29 14° S 03:38:29 14° S 03:39:08 10° S
STARLINK-1403 4.3 03:38:29 14° S 03:38:29 14° S 03:39:09 10° S
STARLINK-1434 4.3 03:38:29 14° S 03:38:29 14° S 03:39:09 10° S
STARLINK-1442 4.3 03:38:30 14° S 03:38:30 14° S 03:39:10 10° S
STARLINK-1433 4.3 03:38:33 14° S 03:38:33 14° S 03:39:12 10° S
STARLINK-1448 4.3 03:38:32 14° S 03:38:32 14° S 03:39:12 10° S
STARLINK-1449 4.3 03:38:34 15° S 03:38:34 15° S 03:39:16 10° S
STARLINK-1438 4.3 03:38:39 14° S 03:38:39 14° S 03:39:17 10° S
STARLINK-1411 4.3 03:38:45 14° S 03:38:45 14° S 03:39:25 10° S
STARLINK-1412 4.3 03:38:45 14° S 03:38:45 14° S 03:39:25 10° S
STARLINK-21 4.2 03:34:42 14° WSW 03:37:35 41° NNW 03:41:03 10° NE
SL-08 R/B 3.7 03:34:03 10° S 03:38:26 42° W 03:42:48 10° NNW
STARLINK-45 4.3 03:36:23 12° W 03:39:24 37° NNW 03:42:49 10° NE
STARLINK-1048 4.0 03:37:57 14° WSW 03:41:22 58° NW 03:45:28 10° NE
STARLINK-76 4.3 03:39:24 12° W 03:42:31 38° NNW 03:45:56 10° NE
SL-16 R/B 4.2 03:40:34 11° WSW 03:42:56 14° W 03:45:57 10° WNW
Cosmos 1818 4.3 03:37:46 10° S 03:42:58 49° ESE 03:48:12 10° NE
STARLINK-70 4.4 03:39:57 11° W 03:43:09 37° NNW 03:46:35 10° NE
Cosmos 2237 Rocket 4.2 03:38:42 10° SSE 03:43:13 25° ESE 03:47:45 10° NE
STARLINK-23 4.4 03:40:59 11° W 03:44:09 37° NNW 03:47:34 10° NE
Cosmos 1538 Rocket 4.2 03:39:44 13° SSW 03:44:32 64° WNW 03:49:54 10° NNE
STARLINK-32 4.4 03:42:18 11° W 03:45:28 36° NNW 03:48:48 10° NE
STARLINK-1049 4.1 03:42:44 13° WSW 03:46:22 54° NW 03:50:26 10° NE
CZ-4C R/B 3.0 03:43:05 10° S 03:46:43 79° WSW 03:50:21 10° NNW
STARLINK-40 4.4 03:44:06 10° W 03:47:25 35° NNW 03:50:47 10° NE
STARLINK-44 4.5 03:45:40 10° W 03:49:00 34° NNW 03:52:22 10° NE
Cosmos 1844 Rocket 2.7 03:44:29 10° NNW 03:50:01 63° WSW 03:55:29 10° S
SL-16 R/B 4.1 03:47:36 10° W 03:51:14 17° NW 03:54:53 10° N
STARLINK-1051 4.2 03:47:30 11° WSW 03:51:20 49° NNW 03:55:23 10° NE
MSX 4.0 03:46:42 10° NNE 03:52:29 75° ESE 03:58:12 10° S
FALCON 9 DEB 3.0 03:50:28 10° NW 03:53:56 78° SW 03:57:23 10° SE
Cosmos 1340 3.3 03:50:50 10° S 03:54:30 56° E 03:58:12 10° NNE
COSMOS 2428 2.8 03:49:24 10° SSW 03:55:05 84° ESE 04:00:47 10° NNE
Cosmos 1743 Rocket 4.3 03:51:06 10° S 03:55:23 55° E 03:59:41 10° NNE
STARLINK-1057 4.4 03:54:43 10° SSW 03:58:39 44° SE 04:02:35 10° ENE
Shenzhou-11 Module 1.5 03:58:12 10° WNW 04:00:39 75° NNE 04:03:05 10° E
STARLINK-1028 4.5 03:57:23 10° WSW 04:01:20 42° NNW 04:05:18 10° NE
STARLINK-1034 4.3 03:59:37 10° SSW 04:03:36 48° SE 04:07:36 10° ENE
STARLINK-1350 4.5 04:01:27 10° NW 04:05:24 54° NE 04:09:20 10° ESE
Cosmos 1933 3.6 04:04:33 10° NNW 04:08:29 50° W 04:12:21 10° S
STARLINK-1068 4.1 04:04:32 10° SSW 04:08:34 54° SE 04:12:37 10° ENE
STARLINK-1352 4.3 04:05:32 10° NW 04:09:29 58° NE 04:13:25 10° ESE
Cosmos 2278 Rocket 3.7 04:06:50 10° N 04:12:14 42° ENE 04:17:35 10° SE
Cosmos 2360 Rocket 3.6 04:08:21 10° WSW 04:12:52 24° NW 04:17:25 10° N
Cosmos 1328 Rocket 4.0 04:09:05 10° NNW 04:13:14 42° W 04:17:19 10° SSW
STARLINK-1027 4.0 04:09:29 10° SW 04:13:33 59° SE 04:17:38 10° ENE
CZ-2C R/B 3.1 04:08:39 10° NNE 04:13:48 60° E 04:18:53 10° S
STARLINK-1368 4.1 04:10:19 10° NW 04:14:18 63° NE 04:18:18 10° ESE
Centaur D-1A AC-31 4.2 04:15:17 10° W 04:46:56 34° SW 04:53:14 10° SSE
